Wind_Speed
38 37 37 36 36 36 35 35 35 36 36 36 36 36 36 36 36 36 36 37 37 38 38 39 39 40 41 42 43 44 46 48 48 48 49 51 53 55 56 56 57 58 59
38 38 37 37 36 36 36 35 36 36 36 36 36 36 36 36 37 37 37 37 38 39 39 40 40 41 42 43 44 46 48 49 50 50 51 53 55 57 58 59 60 61 61
38 37 37 36 36 36 36 36 36 36 36 36 36 36 36 36 37 37 37 38 39 39 40 41 41 42 43 44 45 47 49 50 51 52 53 55 57 59 60 61 62 62 62
38 37 37 36 36 36 36 36 36 36 36 36 36 36 36 36 37 37 38 38 39 40 41 41 42 43 44 45 47 48 50 51 53 54 56 57 59 60 61 62 61 61 62
38 37 37 36 36 36 36 36 36 36 36 36 36 36 36 36 37 37 38 39 40 40 41 42 43 44 46 47 49 50 51 53 54 56 57 58 59 60 61 61 61 61 61
37 37 36 36 36 36 35 35 36 36 36 36 36 36 37 37 37 38 39 39 40 41 41 42 44 45 47 48 49 51 52 53 54 56 57 58 59 60 61 61 61 61 60
37 36 36 36 36 36 36 35 36 36 36 36 36 37 37 38 38 38 39 40 40 41 42 43 45 46 47 48 49 51 52 53 55 57 58 59 60 61 61 61 61 60 60
36 36 36 36 36 36 36 36 36 36 36 36 36 37 37 37 38 38 39 40 41 42 43 44 45 46 47 49 50 51 52 54 56 57 59 59 60 60 60 61 60 60 59
37 36 36 36 36 36 36 36 36 36 36 36 36 36 37 37 38 39 40 41 42 42 43 44 45 47 48 49 50 51 53 54 56 57 58 59 59 59 60 61 61 59 58
36 36 36 36 36 36 36 36 35 35 35 36 36 37 37 38 39 40 41 42 42 42 43 45 46 47 48 49 50 52 53 54 55 56 57 59 59 60 61 61 59 58 57
37 36 36 36 36 36 35 35 35 35 36 36 36 37 38 39 39 40 41 42 42 43 44 45 46 47 49 50 51 52 53 55 56 57 59 59 60 61 60 59 57 56 55
37 37 36 36 35 35 35 35 35 35 36 36 36 37 38 39 40 40 41 41 42 43 44 45 46 48 49 50 52 53 54 55 56 58 59 60 60 58 57 56 55 53 52
38 37 36 36 35 35 35 35 35 36 36 36 37 37 38 39 40 41 41 42 43 43 44 45 46 48 49 51 53 54 54 55 57 59 59 59 58 56 55 53 52 51 50
38 37 36 36 35 35 35 35 35 36 36 36 37 38 39 39 40 41 42 42 43 43 44 45 47 49 50 52 53 53 54 56 58 58 58 57 56 54 52 51 50 49 48
37 37 36 36 35 35 35 35 36 36 36 37 38 38 39 40 40 41 41 42 43 44 45 46 48 49 51 52 52 54 55 56 57 57 56 55 54 52 50 49 48 47 46
37 36 35 35 35 35 35 35 36 36 36 37 38 39 39 40 40 41 42 43 43 44 45 46 48 50 51 52 53 54 55 56 57 56 55 53 51 49 48 47 46 45 44
36 36 35 35 35 35 35 35 35 36 37 38 38 39 40 40 40 41 42 43 43 44 46 47 49 50 51 52 53 55 55 56 56 55 53 51 48 46 46 45 44 42 41
36 36 35 35 35 35 35 35 35 36 37 38 38 39 40 40 40 41 42 43 44 45 47 48 50 51 52 53 54 55 55 55 54 52 50 47 45 44 43 42 41 40 38
35 35 35 35 35 35 35 35 36 37 38 38 39 39 40 40 41 42 43 44 45 46 48 49 50 51 52 53 54 54 54 53 51 49 47 44 43 42 41 40 39 37 35
34 34 34 34 35 35 36 36 37 37 38 38 38 39 40 40 41 42 43 44 45 47 48 49 50 51 52 52 53 53 52 50 48 46 44 43 42 41 39 38 36 34 32
34 34 34 35 35 36 36 36 37 37 37 38 39 39 40 41 42 43 44 44 46 47 48 49 50 51 51 51 51 51 50 48 45 44 43 42 41 39 37 36 34 31 29
34 34 34 35 35 35 36 36 36 37 38 38 39 40 41 41 42 43 44 45 46 47 48 48 50 51 51 50 50 49 48 46 44 44 43 41 39 37 35 34 32 30 27
34 34 34 35 35 35 35 36 36 37 38 39 40 40 40 41 42 43 44 46 47 47 48 49 50 51 50 50 49 48 47 45 44 43 42 39 37 35 33 32 30 27 25
34 34 35 35 34 35 35 36 37 37 38 39 40 40 41 42 43 44 45 46 47 47 48 49 51 51 50 48 47 47 46 45 44 42 40 38 35 33 31 29 27 24 22
33 34 34 34 34 35 36 36 37 37 38 38 39 40 41 42 43 44 45 46 46 47 49 50 50 49 48 47 47 46 45 43 42 40 37 35 32 30 28 26 24 21 19
32 33 34 34 35 35 36 36 37 37 38 39 40 40 41 42 43 43 44 45 46 48 49 50 49 48 46 46 46 45 43 41 39 37 34 31 29 28 26 23 21 19 17
Wind_Direction
254 257 259 262 264 267 269 272 275 277 279 282 284 286 287 288 289 291 292 293 294 295 296 297 297 298 299 301 301 302 303 304 304 305 305 305 305 305 305 305 305 304 303
253 255 258 261 263 266 268 271 274 276 279 281 283 284 286 287 288 290 291 293 294 294 295 296 297 298 299 300 301 302 303 303 304 305 305 305 305 305 305 305 305 304 303
252 255 257 260 263 265 268 271 273 276 278 280 282 283 285 287 288 290 292 293 293 294 295 296 297 299 300 300 302 303 303 303 304 305 305 305 305 305 305 305 305 304 304
251 254 257 260 262 265 267 270 273 275 277 279 281 282 284 287 288 290 292 293 293 294 295 296 298 299 300 301 302 303 303 303 304 305 306 306 306 306 306 306 305 305 305
252 255 257 260 262 265 267 270 273 275 277 278 280 282 284 286 288 290 292 293 293 294 295 296 298 299 300 301 302 303 303 303 304 306 306 307 307 307 306 306 306 306 306
252 255 258 260 263 265 267 270 272 274 276 278 280 283 285 286 288 290 291 292 293 294 295 296 298 299 301 301 302 303 304 305 306 307 307 308 308 308 307 307 307 307 307
251 254 257 260 263 265 267 269 271 274 276 278 281 283 285 286 288 290 292 293 294 295 295 296 298 300 301 301 302 303 305 306 307 307 308 309 308 308 308 309 309 309 308
250 254 257 259 262 265 268 269 271 274 276 278 281 283 284 286 288 290 292 293 294 296 296 297 299 299 300 301 303 304 305 306 307 307 308 309 309 310 310 309 309 309 309
251 254 257 260 262 265 267 270 272 274 276 278 280 283 285 286 288 290 292 294 296 297 297 298 299 300 301 302 304 305 305 306 307 309 309 310 311 311 311 310 310 310 310
251 254 257 261 263 265 267 269 272 274 276 279 281 283 285 287 289 291 293 295 296 297 298 299 300 301 302 303 304 306 307 308 309 309 310 311 311 311 311 311 310 310 310
251 254 258 261 263 265 267 269 272 275 277 280 282 284 286 288 290 292 294 295 296 297 299 300 301 302 303 304 306 307 308 308 309 310 311 311 311 311 311 311 310 310 311
251 255 258 260 262 264 266 269 272 275 278 280 283 285 286 288 291 293 294 296 297 298 300 301 302 303 304 305 306 307 308 309 310 311 312 312 312 312 312 311 311 312 313
252 255 257 260 262 264 267 270 272 275 278 281 283 285 287 289 291 293 295 296 298 299 301 302 303 304 305 306 307 308 309 310 311 312 312 312 312 312 312 312 312 313 313
252 255 257 260 262 264 267 270 273 276 278 281 284 286 288 290 292 293 295 297 298 300 301 302 304 305 307 308 309 310 310 311 311 312 313 312 312 312 312 312 312 313 313
252 254 256 259 261 265 268 271 274 277 280 282 285 287 289 290 292 294 296 297 299 300 301 303 304 306 308 309 310 310 311 312 312 313 313 313 313 312 313 313 314 314 314
251 253 256 259 262 265 268 272 275 278 280 283 285 288 289 290 292 294 296 298 299 301 302 304 305 307 309 310 310 311 312 313 313 313 314 314 313 313 314 314 315 315 315
249 252 255 258 262 265 269 273 276 279 282 285 286 288 290 291 292 294 296 298 299 301 303 305 306 308 309 310 311 312 312 313 313 314 314 314 314 314 315 315 315 316 316
248 251 255 258 262 267 270 274 278 281 283 285 287 288 290 291 292 294 296 298 300 302 304 306 307 309 310 311 312 312 313 314 314 314 314 314 314 314 315 316 317 317 317
248 251 255 259 263 267 271 275 278 281 283 285 286 288 290 291 293 295 297 299 301 303 305 307 308 309 310 311 312 313 314 314 315 315 314 314 314 315 315 316 317 316 317
249 253 257 261 265 268 272 275 278 281 283 286 288 289 290 292 294 296 298 300 302 304 306 307 309 310 311 312 313 314 314 314 315 315 314 314 314 315 316 316 317 317 317
250 254 258 262 265 269 273 276 279 282 284 286 288 290 291 293 295 297 299 301 303 305 306 308 309 311 312 312 313 314 315 315 315 314 314 314 314 315 316 316 317 316 317
251 255 259 263 266 270 273 277 280 282 285 287 289 291 293 294 296 298 300 301 303 305 307 308 310 311 312 312 312 313 313 313 313 314 314 313 313 314 315 315 316 315 315
252 257 260 264 267 271 274 277 280 283 286 288 291 292 294 295 297 299 301 302 304 306 307 308 310 311 311 310 311 311 312 312 313 313 312 312 312 312 313 314 314 314 314
254 258 262 265 268 272 275 278 281 284 287 289 291 293 294 296 298 300 302 303 305 306 308 309 310 310 310 310 311 311 311 311 312 311 311 311 310 311 311 312 312 311 312
256 259 263 266 270 273 276 279 282 285 287 289 291 293 295 297 298 300 302 304 306 307 308 309 310 310 310 310 311 311 311 311 310 310 310 310 310 310 309 309 308 307 309
258 261 265 268 272 275 277 280 282 285 287 289 292 294 296 298 300 301 303 305 306 307 308 309 309 309 309 310 311 311 311 311 310 309 309 309 308 308 307 307 304 303 304
Height
5741 5743 5744 5745 5746 5746 5746 5746 5745 5744 5743 5742 5740 5739 5736 5734 5732 5729 5727 5723 5720 5717 5713 5710 5706 5702 5698 5693 5688 5683 5678 5672 5668 5663 5657 5650 5644 5637 5630 5624 5617 5610 5603
5732 5734 5735 5736 5737 5737 5738 5738 5737 5736 5735 5734 5732 5730 5728 5726 5723 5721 5718 5715 5712 5708 5705 5701 5697 5693 5688 5684 5679 5673 5668 5662 5657 5652 5646 5639 5632 5624 5617 5610 5603 5595 5588
5722 5724 5726 5727 5728 5729 5729 5729 5728 5727 5726 5725 5723 5722 5719 5717 5715 5712 5710 5706 5703 5699 5696 5692 5688 5683 5679 5674 5668 5663 5657 5651 5645 5640 5634 5626 5619 5611 5604 5596 5588 5580 5572
5713 5715 5717 5718 5719 5720 5720 5720 5719 5718 5717 5716 5715 5713 5711 5709 5706 5704 5701 5697 5694 5690 5686 5682 5678 5673 5669 5663 5658 5652 5646 5640 5634 5627 5621 5613 5606 5598 5590 5582 5574 5565 5557
5704 5706 5708 5709 5710 5711 5711 5710 5710 5709 5708 5707 5706 5704 5702 5700 5697 5694 5691 5688 5684 5680 5676 5672 5668 5663 5658 5653 5647 5641 5635 5628 5622 5615 5607 5600 5592 5584 5576 5567 5559 5551 5543
5694 5696 5698 5699 5700 5701 5701 5701 5701 5700 5699 5698 5697 5695 5693 5691 5688 5685 5682 5678 5674 5671 5667 5662 5658 5653 5648 5642 5636 5630 5623 5616 5610 5602 5595 5587 5579 5570 5562 5553 5544 5537 5529
5684 5687 5688 5690 5691 5692 5692 5692 5692 5691 5690 5689 5688 5686 5684 5681 5679 5676 5672 5669 5665 5661 5657 5652 5648 5642 5637 5631 5625 5618 5612 5604 5597 5590 5582 5574 5565 5557 5548 5539 5530 5521 5513
5675 5677 5679 5680 5681 5682 5682 5683 5682 5682 5681 5680 5678 5676 5674 5672 5669 5666 5662 5659 5655 5651 5646 5642 5637 5631 5626 5620 5614 5607 5600 5593 5586 5578 5570 5561 5552 5542 5534 5525 5516 5508 5500
5666 5668 5669 5671 5672 5672 5673 5673 5673 5672 5672 5670 5669 5667 5665 5662 5659 5656 5652 5648 5644 5640 5636 5631 5626 5621 5615 5609 5603 5596 5589 5581 5573 5565 5556 5547 5538 5529 5520 5511 5503 5494 5486
5656 5658 5660 5661 5662 5663 5663 5663 5663 5663 5662 5661 5659 5657 5655 5652 5649 5645 5642 5638 5634 5630 5625 5620 5615 5610 5603 5597 5591 5584 5577 5569 5561 5553 5544 5535 5526 5517 5507 5498 5489 5480 5472
5646 5649 5650 5652 5653 5653 5654 5654 5654 5653 5652 5651 5649 5647 5645 5642 5639 5635 5631 5628 5624 5619 5615 5610 5604 5598 5592 5585 5579 5572 5565 5557 5549 5541 5532 5523 5514 5504 5495 5485 5476 5468 5460
5637 5639 5641 5642 5643 5644 5644 5644 5644 5643 5642 5641 5639 5637 5634 5632 5628 5625 5621 5617 5613 5609 5604 5599 5593 5587 5581 5574 5567 5560 5552 5545 5537 5528 5519 5510 5501 5492 5482 5473 5464 5456 5448
5627 5629 5631 5632 5633 5634 5634 5634 5634 5633 5632 5631 5629 5627 5624 5621 5618 5614 5611 5607 5602 5598 5593 5587 5582 5576 5569 5562 5555 5548 5540 5532 5524 5516 5507 5497 5488 5479 5471 5462 5453 5445 5438
5617 5619 5621 5623 5624 5624 5625 5625 5624 5623 5622 5620 5619 5616 5614 5611 5608 5604 5600 5596 5591 5587 5582 5576 5571 5564 5558 5551 5543 5536 5528 5520 5512 5503 5494 5485 5476 5467 5459 5451 5443 5435 5428
5607 5610 5611 5613 5614 5615 5615 5615 5614 5614 5612 5611 5609 5606 5603 5601 5597 5594 5590 5585 5581 5576 5571 5566 5560 5553 5546 5539 5532 5524 5516 5508 5499 5490 5481 5473 5464 5456 5448 5440 5433 5425 5419
5598 5600 5602 5603 5604 5605 5605 5605 5604 5603 5602 5600 5598 5596 5593 5590 5586 5583 5579 5575 5570 5565 5560 5554 5548 5542 5535 5528 5520 5512 5504 5496 5487 5478 5469 5461 5453 5445 5438 5430 5423 5416 5410
5588 5590 5592 5593 5594 5595 5595 5595 5594 5593 5592 5590 5587 5585 5582 5579 5575 5572 5568 5563 5559 5554 5549 5543 5537 5530 5523 5516 5508 5500 5492 5484 5475 5466 5458 5450 5442 5435 5428 5421 5414 5407 5401
5578 5581 5582 5583 5584 5585 5585 5585 5584 5583 5582 5579 5577 5574 5571 5568 5565 5561 5557 5553 5548 5543 5537 5531 5525 5518 5511 5504 5496 5488 5480 5472 5463 5455 5447 5440 5433 5426 5419 5412 5405 5399 5393
5569 5571 5572 5574 5574 5575 5575 5574 5573 5572 5571 5568 5566 5563 5560 5557 5553 5550 5546 5541 5536 5531 5525 5519 5513 5506 5499 5492 5484 5476 5468 5460 5452 5445 5437 5430 5424 5417 5411 5404 5398 5392 5387
5559 5561 5562 5564 5564 5564 5564 5564 5563 5561 5559 5557 5555 5552 5549 5546 5542 5539 5534 5530 5525 5519 5513 5507 5501 5494 5487 5480 5472 5465 5457 5449 5442 5435 5428 5421 5415 5409 5403 5397 5391 5385 5380
5549 5551 5552 5553 5554 5554 5554 5553 5552 5550 5548 5546 5544 5541 5538 5535 5531 5527 5523 5518 5513 5508 5502 5495 5489 5482 5475 5468 5461 5453 5446 5439 5432 5426 5419 5413 5407 5401 5395 5390 5384 5379 5375
5539 5541 5542 5543 5544 5543 5543 5542 5541 5539 5537 5535 5532 5530 5526 5523 5519 5515 5511 5506 5501 5496 5490 5484 5477 5470 5463 5457 5450 5443 5436 5429 5423 5416 5410 5404 5399 5393 5388 5383 5378 5373 5369
5530 5531 5532 5533 5533 5533 5532 5531 5530 5528 5526 5524 5521 5518 5515 5512 5508 5504 5499 5494 5489 5484 5478 5471 5465 5458 5452 5445 5438 5432 5425 5419 5413 5407 5401 5395 5390 5385 5381 5376 5372 5368 5364
5519 5521 5521 5522 5522 5522 5521 5520 5519 5517 5515 5512 5510 5507 5504 5500 5496 5492 5487 5483 5477 5472 5466 5460 5453 5447 5440 5433 5427 5421 5415 5409 5403 5397 5391 5386 5382 5377 5373 5369 5366 5362 5359
5509 5511 5511 5512 5512 5511 5510 5509 5508 5506 5504 5501 5498 5495 5492 5488 5484 5480 5475 5471 5465 5460 5454 5448 5441 5435 5428 5422 5416 5410 5404 5398 5393 5387 5382 5378 5374 5370 5366 5363 5360 5357 5355
5499 5500 5501 5501 5501 5500 5499 5498 5497 5495 5492 5490 5487 5484 5480 5476 5472 5468 5463 5458 5453 5448 5442 5435 5429 5423 5417 5411 5405 5399 5393 5388 5383 5378 5374 5370 5366 5363 5360 5357 5355 5353 5351